Terminal Aerodrome Forecast
Issued by NWS Glasgow, MT

Home | Current Version | Previous Version | Text Only | Print | Product List | Glossary On
Versions: 1 2 3 4 5 6 7 8 9 10 11 12 13 14 15
000
FTUS45 KGGW 211700 RRA
TAFGGW
TAF
KGGW 211752Z 2118/2218 35003KT P6SM VCSH BKN025 BKN050
     FM212100 34008KT 6SM -SHRA OVC045
     FM220300 03009KT P6SM VCSH BKN060
     FM221500 09012KT P6SM OVC050=

USA.gov is the U.S. government's official web portal to all federal, state and local government web resources and services.